Probability
0 0 0 0 6 13 16 16 26 32 39 42 32 29 26 23 13 10 0 0 0 0 0 3 0 0 0 0 0 0 0 0 0 0 0 0 0 0 0 0 0 0 0
0 0 0 0 10 10 13 10 13 13 19 29 19 23 23 23 19 10 0 0 0 0 0 0 0 0 0 0 0 0 0 0 0 0 0 0 0 0 0 0 0 0 0
0 0 0 0 0 6 13 10 10 10 10 10 16 0 13 6 6 6 6 0 0 0 0 0 0 0 0 0 0 0 0 0 0 0 0 0 0 0 0 0 0 0 0
0 0 0 0 0 0 3 3 6 6 13 10 6 6 10 13 13 6 3 0 0 0 0 0 0 0 0 0 0 0 0 0 0 0 0 0 0 0 0 0 0 0 0
0 0 0 0 0 0 0 0 0 0 3 3 6 10 10 10 3 3 0 0 0 0 0 0 0 0 0 0 0 0 0 0 0 0 0 0 0 0 0 0 0 0 0
0 0 0 0 0 0 0 0 0 0 0 0 0 6 6 3 3 0 0 0 0 0 0 0 0 0 0 0 0 0 0 0 0 0 0 0 0 0 0 0 0 0 0
0 0 0 0 0 0 0 0 0 0 0 0 0 0 0 0 0 0 0 0 0 0 0 0 0 0 0 0 0 0 0 0 0 0 0 0 0 0 0 0 0 0 0
0 0 0 0 0 0 0 0 0 0 0 0 0 0 0 0 0 0 0 0 0 0 0 0 0 0 0 0 0 0 0 0 0 0 0 0 0 0 0 0 0 0 0
0 0 0 0 0 0 0 0 0 0 0 0 0 0 0 0 0 0 0 0 0 0 0 0 0 0 0 0 0 0 0 0 0 0 0 0 0 0 0 0 0 0 0
0 0 0 0 0 0 0 0 0 0 0 0 0 0 0 0 0 0 0 0 0 0 0 0 0 0 0 0 0 0 0 0 0 0 0 0 0 0 0 0 0 0 0
0 0 0 0 0 0 0 0 0 0 0 0 0 0 0 0 0 0 0 0 0 0 0 0 0 0 0 0 0 0 0 0 0 0 0 0 0 0 0 0 0 0 0
0 0 0 0 0 0 0 0 0 0 0 0 0 0 0 0 0 0 0 0 0 0 0 0 0 0 0 0 0 0 0 0 0 0 0 0 0 0 0 0 0 0 0
0 0 0 0 0 0 0 0 0 0 0 0 0 0 0 0 0 0 0 0 0 0 0 0 0 0 0 0 0 0 0 0 0 0 0 0 0 0 0 0 0 0 0
0 0 0 0 0 0 0 0 0 0 0 0 0 0 0 0 0 0 0 0 0 0 0 0 0 0 0 0 0 0 0 0 0 0 0 0 0 0 0 0 0 0 0
0 0 0 0 0 0 0 0 0 0 0 0 0 0 0 0 0 0 0 0 0 0 0 0 0 0 0 0 0 0 0 0 0 0 0 0 0 0 0 0 0 0 0
0 0 0 0 0 0 0 0 0 0 0 0 0 0 0 0 0 0 0 0 0 0 0 0 0 0 0 0 0 0 0 0 0 0 0 0 0 0 0 0 0 0 0
0 0 0 0 0 0 0 0 0 0 0 0 0 0 0 0 0 0 0 0 0 0 0 0 0 0 0 0 0 0 0 0 0 0 0 0 0 0 0 0 0 0 0
0 0 0 0 0 0 0 0 0 0 0 0 0 0 0 0 0 0 0 0 0 0 0 0 0 0 0 0 0 0 0 0 0 0 0 0 0 0 0 0 0 0 0
0 0 0 0 0 0 0 0 0 0 0 0 0 0 0 0 0 0 0 0 0 0 0 0 0 0 0 0 0 0 0 0 0 0 0 0 0 0 0 0 0 0 0
0 0 0 0 0 0 0 0 0 0 0 0 0 0 0 0 0 0 0 0 0 0 0 0 0 0 0 0 0 0 0 0 0 0 0 0 0 0 0 0 0 0 0
0 0 0 0 0 0 0 0 0 0 0 0 0 0 0 0 0 0 0 0 0 0 0 0 0 0 0 0 0 0 0 0 0 0 0 0 0 0 0 0 0 0 0
0 0 0 0 0 0 0 0 0 0 0 0 0 0 0 0 0 0 0 0 0 0 0 0 0 0 0 0 0 0 0 0 0 0 0 0 0 0 0 0 0 0 0
0 0 0 0 0 0 0 0 0 0 0 0 0 0 0 0 0 0 0 0 0 0 0 0 0 0 0 0 0 0 0 0 0 0 0 0 0 0 0 0 0 0 0
0 0 0 0 0 0 0 0 0 0 0 0 0 0 0 0 0 0 0 0 0 0 0 0 0 0 0 0 0 0 0 0 0 0 0 0 0 0 0 0 0 0 0
0 0 0 0 0 0 0 0 0 0 0 0 0 0 0 0 0 0 0 0 0 0 0 0 0 0 0 0 0 0 0 0 0 0 0 0 0 0 0 0 0 0 0
0 0 0 0 0 0 0 0 0 0 0 0 0 0 0 0 0 0 0 0 0 0 0 0 0 0 0 0 0 0 0 0 0 0 0 0 0 0 0 0 0 0 0
Height
5788 5793 5799 5804 5808 5812 5816 5819 5822 5824 5827 5829 5832 5834 5836 5838 5839 5841 5842 5842 5843 5843 5843 5843 5842 5841 5841 5840 5838 5837 5835 5833 5831 5828 5826 5824 5820 5816 5812 5808 5805 5801 5797
5780 5786 5791 5796 5800 5804 5808 5812 5814 5817 5819 5821 5824 5826 5828 5830 5832 5833 5834 5835 5835 5836 5836 5836 5835 5834 5833 5832 5831 5829 5827 5826 5823 5820 5817 5816 5814 5810 5805 5800 5796 5792 5788
5773 5778 5782 5787 5791 5795 5799 5803 5806 5809 5811 5814 5816 5818 5820 5822 5824 5825 5826 5827 5827 5827 5828 5827 5827 5826 5825 5824 5823 5821 5819 5817 5815 5812 5808 5806 5804 5802 5799 5794 5788 5783 5779
5765 5769 5774 5778 5782 5786 5790 5794 5797 5800 5803 5805 5807 5810 5811 5813 5815 5816 5817 5818 5818 5819 5819 5819 5818 5818 5817 5816 5814 5812 5810 5808 5806 5804 5800 5797 5794 5791 5788 5786 5781 5775 5770
5755 5759 5764 5769 5773 5777 5781 5784 5788 5791 5793 5796 5798 5800 5802 5804 5806 5807 5808 5809 5809 5810 5810 5810 5809 5809 5808 5807 5805 5803 5801 5799 5797 5794 5792 5788 5784 5780 5777 5775 5772 5767 5763
5745 5750 5754 5759 5764 5768 5771 5775 5778 5781 5783 5786 5788 5791 5793 5794 5796 5797 5798 5799 5800 5800 5800 5800 5799 5799 5798 5797 5796 5794 5792 5790 5787 5785 5782 5778 5775 5771 5767 5764 5761 5758 5754
5737 5741 5746 5750 5755 5758 5762 5765 5768 5771 5774 5776 5779 5781 5783 5784 5786 5787 5788 5789 5789 5790 5790 5790 5789 5789 5788 5787 5785 5784 5782 5780 5777 5775 5771 5768 5765 5761 5758 5754 5751 5748 5744
5729 5733 5737 5741 5745 5748 5752 5755 5758 5761 5764 5766 5769 5771 5772 5774 5775 5776 5777 5778 5779 5779 5779 5779 5779 5778 5777 5776 5775 5773 5771 5769 5767 5764 5761 5758 5755 5751 5748 5744 5741 5738 5734
5721 5725 5728 5732 5736 5739 5742 5745 5748 5751 5754 5757 5759 5761 5762 5764 5765 5766 5766 5767 5768 5768 5768 5768 5768 5767 5766 5765 5764 5762 5761 5758 5756 5753 5750 5747 5744 5741 5738 5735 5731 5728 5725
5714 5717 5720 5723 5727 5730 5733 5736 5739 5742 5744 5746 5748 5750 5752 5753 5754 5755 5756 5756 5757 5757 5757 5757 5756 5756 5755 5754 5753 5751 5750 5748 5745 5743 5740 5737 5734 5731 5728 5725 5721 5718 5714
5706 5709 5712 5715 5717 5720 5723 5726 5728 5731 5733 5736 5737 5739 5740 5742 5743 5744 5744 5745 5745 5745 5746 5745 5745 5745 5744 5743 5742 5740 5739 5737 5734 5732 5729 5727 5724 5721 5718 5715 5711 5708 5705
5699 5701 5704 5706 5709 5711 5713 5716 5718 5720 5722 5724 5726 5727 5729 5730 5731 5732 5732 5733 5734 5734 5734 5734 5734 5733 5732 5732 5731 5729 5727 5726 5723 5721 5719 5717 5714 5711 5708 5705 5701 5698 5695
5692 5694 5696 5697 5700 5702 5704 5706 5708 5709 5711 5713 5714 5716 5717 5718 5719 5720 5721 5721 5722 5722 5722 5722 5722 5721 5721 5720 5719 5718 5716 5715 5713 5711 5709 5706 5704 5701 5698 5695 5692 5689 5686
5685 5686 5688 5689 5691 5692 5694 5695 5697 5699 5700 5702 5703 5704 5705 5706 5707 5708 5708 5709 5709 5710 5710 5710 5710 5710 5709 5708 5707 5706 5705 5704 5702 5700 5698 5696 5694 5691 5689 5686 5683 5680 5677
5677 5678 5679 5680 5682 5683 5684 5686 5687 5689 5690 5691 5692 5693 5694 5695 5695 5696 5697 5697 5698 5698 5698 5698 5698 5698 5698 5697 5696 5695 5694 5693 5691 5690 5688 5686 5684 5682 5679 5677 5674 5671 5668
5669 5669 5670 5672 5673 5674 5675 5676 5677 5678 5679 5680 5681 5682 5683 5684 5684 5685 5685 5686 5686 5686 5687 5687 5687 5687 5686 5686 5685 5684 5683 5682 5681 5680 5678 5676 5674 5672 5670 5668 5665 5662 5660
5661 5661 5662 5663 5664 5665 5666 5667 5668 5669 5669 5670 5671 5672 5672 5673 5673 5674 5674 5674 5675 5675 5675 5675 5676 5676 5675 5675 5675 5674 5673 5672 5672 5670 5669 5667 5665 5663 5661 5659 5656 5654 5651
5652 5653 5653 5654 5655 5656 5657 5657 5658 5659 5659 5660 5661 5661 5662 5662 5663 5663 5664 5664 5664 5665 5665 5665 5665 5665 5665 5665 5665 5664 5664 5663 5662 5661 5660 5659 5657 5655 5653 5650 5648 5645 5642
5644 5644 5645 5646 5647 5648 5648 5648 5649 5649 5650 5650 5651 5652 5652 5653 5653 5653 5654 5654 5655 5655 5655 5655 5656 5656 5656 5656 5656 5655 5655 5655 5654 5653 5651 5650 5648 5646 5644 5642 5639 5636 5634
5636 5636 5637 5638 5638 5639 5639 5640 5640 5641 5641 5641 5642 5642 5643 5643 5644 5644 5645 5645 5645 5646 5646 5647 5647 5647 5647 5647 5647 5647 5647 5646 5645 5644 5643 5641 5639 5637 5635 5633 5630 5627 5625
5628 5628 5629 5630 5630 5631 5631 5632 5632 5632 5633 5633 5633 5634 5634 5635 5635 5636 5636 5636 5637 5637 5638 5638 5639 5639 5639 5639 5639 5639 5638 5638 5637 5635 5634 5632 5631 5628 5626 5623 5621 5618 5615
5621 5621 5622 5622 5623 5623 5623 5624 5624 5625 5625 5625 5625 5626 5626 5627 5627 5628 5628 5628 5629 5629 5630 5630 5630 5631 5631 5631 5631 5630 5630 5629 5628 5627 5625 5623 5621 5619 5617 5614 5611 5608 5605
5614 5614 5615 5615 5615 5616 5616 5616 5617 5617 5617 5618 5618 5619 5619 5619 5620 5620 5621 5621 5621 5621 5622 5622 5622 5622 5622 5622 5622 5622 5621 5620 5619 5618 5616 5614 5612 5610 5607 5604 5601 5598 5595
5607 5607 5608 5608 5608 5608 5609 5609 5610 5610 5610 5611 5611 5611 5612 5612 5613 5613 5613 5613 5613 5614 5614 5614 5614 5614 5614 5614 5613 5613 5612 5611 5609 5608 5606 5604 5602 5600 5597 5594 5591 5588 5584
5600 5600 5601 5601 5601 5601 5601 5602 5602 5603 5603 5604 5604 5604 5605 5605 5605 5605 5605 5606 5606 5606 5606 5606 5606 5606 5606 5605 5604 5603 5603 5601 5600 5598 5596 5594 5592 5589 5587 5583 5580 5577 5573
5593 5593 5593 5594 5594 5594 5594 5595 5595 5595 5596 5596 5596 5597 5597 5597 5597 5597 5598 5597 5598 5597 5597 5597 5597 5597 5596 5596 5595 5594 5593 5591 5590 5588 5586 5584 5581 5579 5576 5572 5569 5565 5561
Wind_Speed
51 50 49 48 47 46 45 44 43 44 44 44 43 42 41 40 39 38 37 37 36 35 35 35 35 35 35 36 36 37 38 38 39 40 41 41 42 42 44 44 45 45 45
51 51 51 51 50 49 48 47 46 46 45 45 45 44 44 43 42 41 40 40 39 39 38 38 38 38 38 38 39 40 40 40 41 43 43 43 43 43 44 45 46 46 45
53 52 51 51 52 51 50 50 50 49 47 47 46 46 46 45 45 44 43 42 42 41 41 41 40 40 40 40 41 42 42 43 44 44 45 46 46 45 44 44 44 45 44
53 53 53 52 52 52 52 51 51 51 50 49 49 48 48 47 47 46 46 45 44 44 43 43 43 42 42 42 43 43 44 45 45 45 46 47 48 48 47 44 43 43 43
53 54 54 53 52 52 53 53 52 52 51 51 51 50 50 49 49 49 48 47 47 46 46 45 44 44 44 44 45 45 46 46 47 47 47 48 48 48 48 46 44 43 42
49 51 53 54 53 51 51 51 51 51 51 51 51 51 50 50 50 49 49 49 48 48 47 46 46 46 46 46 46 46 47 47 48 48 48 48 48 47 46 45 44 43 42
47 48 49 50 51 51 51 51 51 50 50 50 50 50 49 49 49 49 49 49 49 49 48 48 47 47 47 48 48 48 48 48 48 48 48 48 47 46 45 45 43 42 41
43 45 47 48 48 49 50 50 50 49 49 49 48 48 48 48 48 49 49 49 49 49 49 48 48 48 48 48 48 48 48 48 48 47 47 47 46 45 44 44 43 42 41
39 41 43 45 46 47 48 48 48 48 47 47 47 47 48 48 49 49 49 49 49 49 49 48 48 48 48 48 47 47 47 47 47 47 46 45 44 44 43 43 42 42 41
36 38 40 42 45 46 47 48 48 48 48 47 48 48 49 49 49 50 50 50 50 50 49 49 49 49 48 48 47 47 47 47 46 46 45 44 43 43 42 42 42 41 40
34 36 37 39 41 44 46 47 48 49 49 49 49 50 50 50 50 51 51 51 51 50 50 49 49 49 48 47 47 46 46 46 45 44 43 43 42 41 41 41 39 39 38
32 33 36 38 39 41 43 45 47 49 50 50 51 51 51 52 52 52 52 52 52 51 50 50 49 48 47 46 46 46 45 44 44 43 42 41 41 40 40 38 38 37 37
31 32 33 36 37 39 41 42 44 46 47 48 49 50 51 51 52 52 52 52 51 50 49 48 47 47 46 45 45 45 44 43 42 41 40 40 39 38 38 37 36 36 36
31 32 33 34 35 37 38 40 41 42 44 45 46 47 48 49 49 49 49 49 48 48 46 46 45 44 44 43 43 43 42 42 41 40 39 38 37 36 36 35 35 34 34
32 33 34 34 35 36 37 38 39 41 42 43 43 44 45 45 45 45 45 45 45 44 44 44 43 43 43 42 42 41 40 39 38 38 37 36 35 35 34 33 33 33 33
32 33 34 34 35 36 37 38 39 40 41 41 41 42 42 42 42 42 43 43 43 42 42 42 42 41 41 41 40 39 38 37 36 35 34 34 33 32 31 31 31 31 32
31 32 33 33 34 34 35 36 37 38 39 40 40 40 40 40 40 40 40 40 40 40 40 40 40 39 39 38 37 36 35 35 34 33 32 31 30 30 30 30 31 31 31
31 31 32 32 33 33 34 35 36 37 37 38 38 38 38 38 38 37 37 37 37 37 37 36 36 36 36 35 34 34 33 32 31 30 30 30 29 29 30 30 30 31 31
30 31 31 32 32 32 33 34 34 35 36 36 36 37 37 37 36 35 35 35 35 34 34 33 33 33 32 32 32 31 30 30 29 29 29 29 29 30 30 30 31 31 32
28 29 29 30 30 31 31 32 32 33 33 33 33 34 34 34 34 34 33 32 32 31 31 31 31 30 30 30 29 29 29 29 29 29 29 29 29 30 30 31 31 32 33
26 26 27 28 29 29 30 30 29 29 29 29 29 30 30 30 31 31 31 30 30 29 29 30 29 29 29 29 29 29 28 28 29 29 29 29 30 30 31 31 32 33 33
24 24 25 25 26 27 28 28 28 27 27 27 28 28 28 28 28 28 28 28 28 28 28 29 29 28 28 28 28 28 29 29 30 30 30 30 31 31 32 32 33 34 35
22 23 24 25 25 26 26 26 26 26 26 26 26 26 26 27 27 28 28 28 28 28 28 28 28 29 29 29 29 29 30 30 31 31 31 31 32 32 33 33 34 36 36
22 22 23 24 24 24 25 25 25 25 25 25 26 26 26 27 27 27 27 27 27 28 28 28 29 29 29 29 30 30 31 32 32 32 32 33 33 34 35 36 36 37 38
23 23 23 23 23 24 25 25 25 25 26 26 26 26 26 26 27 27 27 28 28 29 29 29 30 30 30 31 31 32 32 33 33 33 34 34 35 36 37 38 38 39 40
24 24 24 24 24 25 25 26 26 26 26 26 27 27 28 28 28 27 28 28 28 29 30 30 30 31 32 32 33 33 33 34 34 34 35 36 37 38 38 39 39 40 41
Wind_Direction
231 231 231 231 233 235 237 239 241 242 242 242 243 246 248 252 255 258 262 265 268 271 274 276 278 280 281 282 284 285 287 289 291 294 296 297 300 301 302 302 303 302 302
232 232 233 233 234 236 237 239 241 243 244 244 244 246 248 252 255 259 262 265 268 271 274 275 277 278 280 281 282 284 286 288 291 293 294 296 297 299 300 301 301 300 300
233 234 235 235 236 237 239 241 242 243 245 246 246 247 250 252 256 259 262 265 268 271 273 275 276 277 278 279 281 284 286 288 290 292 294 296 297 297 298 297 298 298 298
233 235 236 237 238 239 241 242 243 244 246 247 248 250 251 254 256 259 262 264 267 269 271 273 274 275 277 278 280 282 285 288 289 291 293 295 296 297 298 297 296 295 295
233 235 236 238 239 240 241 243 245 246 247 248 249 251 252 254 257 259 261 263 265 267 269 270 272 273 275 277 279 282 284 286 288 290 292 294 295 296 296 296 296 295 294
234 235 236 237 238 239 241 242 244 245 247 249 250 252 253 255 257 258 260 262 264 265 267 268 270 272 274 276 279 281 283 285 288 290 291 293 294 294 294 295 295 295 294
235 235 236 237 238 239 240 242 243 245 247 249 251 253 254 255 257 258 259 261 263 264 266 268 270 272 274 276 278 281 283 286 288 289 290 292 293 293 293 294 294 294 294
238 238 238 237 238 239 240 241 244 246 247 249 251 253 254 255 257 258 260 261 263 265 267 269 271 273 275 277 278 281 283 285 287 288 289 290 291 291 292 293 293 293 293
240 240 241 241 241 241 241 243 244 245 247 249 251 252 254 256 258 260 261 262 264 266 267 270 271 273 274 276 279 281 283 285 286 287 288 289 289 290 291 292 292 292 292
241 241 241 242 243 244 245 245 246 247 248 250 252 253 255 257 259 260 262 263 265 267 268 270 271 273 274 276 278 280 282 284 285 286 287 287 288 288 289 291 291 291 292
243 243 243 244 245 246 247 248 249 250 251 253 254 256 257 259 260 261 263 264 266 267 268 270 271 273 275 277 278 280 281 283 284 285 285 286 287 287 289 290 290 291 292
246 246 246 246 247 248 248 249 250 251 252 254 255 257 259 260 261 262 264 265 266 267 268 270 271 273 275 276 278 279 280 282 282 283 284 285 285 287 288 289 290 291 292
249 250 250 250 250 250 251 251 252 253 254 255 256 258 259 261 262 263 264 265 266 268 269 270 271 273 275 276 277 278 279 280 281 281 282 283 285 286 287 289 290 291 292
253 253 254 254 253 253 253 253 254 254 255 256 257 259 260 262 264 265 266 267 268 269 269 270 271 272 273 275 276 277 277 278 279 280 281 282 283 285 287 289 290 291 292
257 257 256 256 256 256 257 257 257 257 257 258 259 260 261 262 263 264 265 266 267 267 268 269 269 270 272 273 274 275 275 276 277 278 280 281 282 285 287 289 290 291 292
260 260 259 258 258 259 259 259 259 259 259 260 261 262 262 262 263 263 264 264 265 265 266 267 268 270 271 272 272 273 273 274 275 277 278 280 283 285 287 289 291 292 293
260 260 260 259 259 260 260 260 260 261 260 260 261 262 262 262 263 264 264 265 265 265 266 266 268 269 269 270 270 271 272 273 274 276 278 281 283 285 288 290 292 293 294
259 260 260 259 259 260 260 260 260 260 260 261 261 261 261 262 263 263 264 265 265 265 265 266 267 267 268 267 268 269 270 271 273 275 278 281 283 285 288 290 292 293 294
260 259 259 259 259 260 261 261 261 261 261 261 262 262 262 262 263 264 265 265 264 264 265 265 265 266 266 266 266 267 268 270 273 275 278 281 284 287 289 290 292 293 294
259 258 258 258 259 260 261 261 261 261 261 262 262 262 262 262 262 263 263 264 263 263 263 263 263 263 264 265 266 267 268 270 273 276 279 282 285 288 289 291 292 294 295
257 257 257 257 258 259 259 260 261 261 261 262 263 262 262 262 261 261 261 262 261 262 262 261 262 262 263 264 265 266 269 272 275 277 280 283 286 288 290 291 293 294 295
256 255 256 257 258 259 259 259 260 260 260 262 262 261 261 261 261 261 261 261 261 261 261 261 262 262 262 264 265 268 271 274 276 278 281 283 286 288 290 292 293 294 295
257 256 256 258 259 259 259 258 258 259 260 260 260 261 261 261 262 262 262 262 261 261 261 262 262 263 264 265 267 269 272 275 277 279 281 284 286 289 291 292 294 295 296
256 258 259 258 257 258 257 257 258 259 259 260 261 261 262 263 264 264 262 262 262 263 263 263 264 265 266 267 269 272 275 277 279 280 282 285 287 289 291 292 294 294 295
257 257 258 257 257 258 258 257 258 259 259 260 261 261 262 264 264 264 264 264 264 264 264 264 264 265 267 269 271 274 276 278 280 281 283 285 286 288 290 292 293 294 295
258 258 259 258 259 260 259 259 259 259 259 260 262 262 262 263 263 263 265 266 265 266 266 265 266 267 269 271 273 274 276 278 280 282 283 285 287 289 290 292 293 294 296